Regional Weather Roundup
Issued by NWS

Home | Current Version | Previous Version | Graphics & Text | Print | Product List | Glossary On
Versions: 1 2 3 4 5 6 7 8 9 10 11 12 13 14 15 16 17 18 19 20 21 22 23 24 25 26 27 28 29 30 31 32 33 34 35 36 37 38 39 40 41 42 43 44 45 46 47 48 49 50
000
ASUS45 KTFX 030410
RWRMT
MONTANA REGIONAL WEATHER ROUNDUP
NATIONAL WEATHER SERVICE GREAT FALLS MT
1000 PM MDT TUE JUN 02 2015

NOTE: "FAIR" INDICATES FEW OR NO CLOUDS BELOW 12000 FEET WITH NO
SIGNIFICANT WEATHER AND/OR OBSTRUCTIONS TO VISIBILITY.

MTZ001>007-043-030500-
WEST OF THE DIVIDE

CITY           SKY/WX    TMP DP  RH WIND       PRES   REMARKS
KALISPELL      CLOUDY    53  51  93 N5        30.00R
MISSOULA       LGT RAIN  56  48  74 SW6       30.01R
BUTTE          MOCLDY    52  42  69 NW8       30.03R
MULLAN PASS    MOCLDY    43  39  86 SW5       30.05R
DEER LODGE       N/A     52  45  76 NW3       30.06R
EUREKA           N/A     54  48  82 SE6       29.99S
HAMILTON         N/A     54  46  76 S5        30.02S
LIBBY            N/A     52  50  93 CALM      29.99R
PLAINS           N/A     58  47  66 CALM      30.00R
RONAN            N/A     55  50  83 N3        30.05R
$$

MTZ008-052>055-030500-
SOUTHWEST MONTANA

CITY           SKY/WX    TMP DP  RH WIND       PRES   REMARKS
BOZEMAN        MOCLDY    52  48  86 SE8       29.99F
DILLON         LGT RAIN  54  48  80 S3        30.01R
W YELLOWSTONE  PTCLDY    48  43  81 W3        30.05R
THREE FORKS      N/A     55  19  24 CALM      29.99R
$$

MTZ009-010-012-014-046-048-049-054-030500-
EAST SLOPES AND CENTRAL MONTANA

CITY           SKY/WX    TMP DP  RH WIND       PRES   REMARKS
CUT BANK       CLOUDY    51  48  89 E6        29.98R
GREAT FALLS    CLOUDY    54  52  93 SE5       29.97R
MALMSTROM AFB  MOCLDY    55  53  94 S2        29.97S
HELENA         CLOUDY    58  46  64 N8        29.98R
CONRAD           N/A     52  52 100 N1        30.01R
$$

MTZ011-013-016-021-045-047-050-051-030500-
NORTH CENTRAL MONTANA

CITY           SKY/WX    TMP DP  RH WIND       PRES   REMARKS
HAVRE          CLOUDY    54  50  86 E10       29.95R
LEWISTOWN      CLOUDY    54  50  86 SE5       29.98R
N BAR RANCH    MOCLDY    48  46  93 NW5       30.02R
CHINOOK          N/A     55  50  82 CALM      29.97R
FORT BENTON      N/A     55  54  94 CALM      29.96R
$$

MTZ017>020-022>027-061-062-030500-
NORTHEAST MONTANA

CITY           SKY/WX    TMP DP  RH WIND       PRES   REMARKS
GLASGOW        CLOUDY    57  51  80 E6        29.94R
JORDAN           N/A     55  52  89 CALM      29.95S
SIDNEY         MOCLDY    55  50  82 NW7       29.93R
WOLF POINT     CLOUDY    58  53  84 NE6       29.95R
MALTA            N/A     59  49  69 E2        29.92R
PLENTYWOOD       N/A     55  54  94 CALM      29.95S
POPLAR           N/A     55  54  94 N3        29.95R
SCOBEY           N/A     56  40  55 N1        29.96R
$$

MTZ028>42-056>058-030500-
SOUTHCENTRAL AND SOUTHEAST MONTANA

CITY           SKY/WX    TMP DP  RH WIND       PRES   REMARKS
BAKER          CLOUDY    56  50  80 N12       29.94R
BILLINGS       PTCLDY    54  52  93 CALM      29.98R
LIVINGSTON     CLOUDY    55  45  68 NW8       29.99S
MILES CITY     MOCLDY    56  52  86 N5        29.95R
BIG TIMBER       N/A     55  46  71 W9        30.00S
EKALAKA          N/A     54  49  83 N2        29.95R
FORSYTH          N/A     57  54  88 NW6       30.00R
LAUREL           N/A     53  43  69 N1        29.98R
ROUNDUP          N/A     54  50  86 CALM      29.90R
$$

REGIONAL REPORTS...DAKOTAS

CITY           SKY/WX    TMP DP  RH WIND       PRES   REMARKS
WILLISTON      CLOUDY    56  53  90 N10       29.92R
MINOT          LGT RAIN  53  51  93 N28G35    29.82S
DICKINSON      CLOUDY    56  53  90 W15       29.84R
BEACH          CLOUDY    54  54 100 N16G22    29.92S
CROSBY         CLOUDY    54  54 100 NE8       29.93R
BISMARCK       CLOUDY    68  65  90 W13G23    29.77R
GRAND FORKS    MOCLDY    63  60  90 NE14      29.74F
FARGO          CLOUDY    76  62  62 S22G29    29.65F
BUFFALO SD       N/A     59  52  77 N3        29.85S
RAPID CITY     MOCLDY    63  59  87 NW15      29.89R
$$

REGIONAL REPORTS...WYOMING/IDAHO/WASHINGTON

CITY           SKY/WX    TMP DP  RH WIND       PRES   REMARKS
GILLETTE       CLOUDY    54  49  83 VRB3      29.96R
SHERIDAN       PTCLDY    51  47  86 W3        29.98R
BUFFALO WY     PTCLDY    52  46  80 W3        30.01R
CODY           PTCLDY    57  46  67 N9        29.98R
YELLOWSTONE LA   N/A     46  36  68 CALM      30.14R
IDAHO FALLS    CLEAR     60  44  55 SW7       29.98R
SALMON           N/A     59  39  47 W6        30.00R
BOISE          MOCLDY    63  46  54 W15G23    29.96R
SPOKANE        MOCLDY    63  43  48 S5        29.93S
$$

REGIONAL REPORTS...ALBERTA

CITY           SKY/WX    TMP DP  RH WIND       PRES   REMARKS
CALGARY        LGT RAIN  50  46  87 S13G20    29.97S
LETHBRIDGE     LGT RAIN  50  50 100 SE7       29.97R
MEDICINE HAT   MOCLDY    55  52  88 NW5       29.98R
$$

REGIONAL REPORTS...SASKATCHEWAN

CITY           SKY/WX    TMP DP  RH WIND       PRES   REMARKS
SWIFT CURRENT  CLOUDY    55  36  47 S3        29.99R
REGINA         CLOUDY    59  36  41 CALM      29.96R
SASKATOON      MOCLDY    50  32  50 N5        30.01R
$$



USA.gov is the U.S. government's official web portal to all federal, state and local government web resources and services.